Погода в Горах

Россия / Пермский край     57°17′38″N   55°34′00″E
темп.,
°C
ветер,
м/с
пор.,
м/с
влажн.,
%
обл.,
%
осадки,
мм/ч
давл.,
гПа
погр.,
м
22 апреля, чт
чт2223:00+7ююв41153100 0.0 1028261
02:00+6ююв3957100 0.0 1027209
05:00+7ю51157100 0.0 1028539
08:00+6ю71478100 0.1 1027988
11:00+5ю71289100 0.3 10281135
14:00+4ю61196100 0.1 1029846
17:00+5ю51092100 0.2 1029865
20:00+6ю3783100 0.2 1029316
23 апреля, пт
пт2323:00+6ю5992100 0.3 1028694
02:00+3ю5997100 0.1 1028478
05:00+3ю4897100 0.1 1029362
08:00+3ю3794100 0.0 1029472
11:00+4ю4689100 0.0 1030581
14:00+6ю4580100 0.0 1030673
17:00+7ююв347398 0.0 1029771
20:00+6юв3580100 0.0 1029304
24 апреля, сб
сб2423:00+6вюв2480100 0.0 1028127
02:00+3всв3790100 0.0 1026140
05:00+2всв3892100 0.0 1024188
08:00+5в3884100 0.0 1022315
11:00+7в4778100 0.0 1020447
14:00+7вюв4889100 0.8 1019601
17:00+7вюв4888100 1.3 1017532
20:00+7вюв61187100 0.2 1016598
25 апреля, вс
вс2523:00+6вюв5118690 0.2 1015500
02:00+5вюв5119172 0.0 1013377
05:00+5вюв5888100 0.4 1012771
08:00+5вюв61092100 0.7 1011616
11:00+7юв61187100 0.8 1009841
14:00+7ю81290100 3.3 10081032
17:00+7юз9128199 5.3 10091224
20:00+5ююз488398 0.1 1011408
26 апреля, пн
пн2623:00+4ююз4118041 0.3 1012262
02:00+3ююз49833 0.1 1013200
05:00+2ююз388616 0.1 1014159
08:00+4ююз4108093 0.0 1014427
11:00+4ююз599399 1.4 1015638
14:00+9юз6954100 0.9 10141747
17:00+10зюз794682 1.4 10142528
20:00+7зюз365818 0.0 1014127